This is the latest recevied weather packets stored in our database for station/object KM8V-8. If no packets are shown the sender has not sent any weather packets the latest 10 day(s).
| Time | Temp. | Humidity | Pressure | Rain* | Wind** | Luminosity | Snow |
|---|---|---|---|---|---|---|---|
| 1778017522 | 10.56° C | 97% | 1008 hPa | 2.29 mm | - | 28 W/m² | - |
| 1778017224 | 10.56° C | 97% | 1007.8 hPa | 2.54 mm | - | 53 W/m² | - |
| 1778016923 | 10.56° C | 97% | 1008 hPa | 2.54 mm | - | 47 W/m² | - |
| 1778016623 | 10.56° C | 97% | 1007.9 hPa | 2.54 mm | - | 27 W/m² | - |
| 1778016323 | 10.56° C | 96% | 1007.8 hPa | 2.54 mm | - | 50 W/m² | - |
| 1778016023 | 10.56° C | 96% | 1007.9 hPa | 2.54 mm | - | 39 W/m² | - |
| 1778015723 | 10.56° C | 96% | 1007.9 hPa | 2.54 mm | - | 43 W/m² | - |
| 1778015423 | 11.11° C | 96% | 1007.8 hPa | 2.54 mm | - | 42 W/m² | - |
| 1778015123 | 11.11° C | 96% | 1007.7 hPa | 2.54 mm | - | 53 W/m² | - |
| 1778014823 | 11.11° C | 96% | 1007.7 hPa | 2.54 mm | - | 54 W/m² | - |
| 1778014521 | 12.22° C | 95% | 1007.7 hPa | 2.29 mm | - | 48 W/m² | - |
| 1778014221 | 12.78° C | 95% | 1007.6 hPa | 1.78 mm | - | 34 W/m² | - |
| 1778013921 | 13.89° C | 96% | 1007.5 hPa | 1.52 mm | - | 29 W/m² | - |
| 1778013624 | 13.89° C | 96% | 1007.5 hPa | 1.27 mm | - | 28 W/m² | - |
| 1778013321 | 13.89° C | 96% | 1007.5 hPa | 1.27 mm | - | 41 W/m² | - |
| 1778013024 | 13.89° C | 96% | 1007.5 hPa | 1.27 mm | - | 46 W/m² | - |
| 1778012724 | 13.89° C | 96% | 1007.4 hPa | 1.27 mm | - | 60 W/m² | - |
| 1778012424 | 13.89° C | 96% | 1007.4 hPa | 1.27 mm | - | 101 W/m² | - |
| 1778012124 | 13.89° C | 95% | 1007.5 hPa | 1.27 mm | - | 78 W/m² | - |
| 1778011824 | 13.89° C | 95% | 1007.4 hPa | 1.27 mm | - | 85 W/m² | - |
| 1778011525 | 13.89° C | 95% | 1007.4 hPa | 1.27 mm | - | 84 W/m² | - |
| 1778011224 | 13.89° C | 95% | 1007.4 hPa | 1.27 mm | - | 98 W/m² | - |
| 1778010925 | 13.89° C | 94% | 1007.4 hPa | 1.27 mm | - | 85 W/m² | - |
| 1778010625 | 13.89° C | 94% | 1007.5 hPa | 1.27 mm | - | 92 W/m² | - |
| 1778010322 | 13.89° C | 93% | 1007.5 hPa | 1.27 mm | - | 79 W/m² | - |
* Rain latest hour (hover to see other rain measurements)
** Current wind speed in m/s (hover to see current wind gust speed)